Home > Weather > Huelva > Past weeks

Flag for Spain Weather for the Past 2 Weeks in Huelva, Spain

Now
63 °F

Passing clouds.


Feels Like: 63 °F
Forecast: 58 / 67 °F
Wind: 10 mph from Southeast

Location: Rota Airport

Current Time: May 6, 2016 at 12:57:50 AM

Latest Report: May 6, 2016 at 12:00 AM


Visibility: N/A

Pressure: 29.89 "Hg

Humidity: 94%

Dew Point: 61 °F

Location of HuelvaLocation

Historic Weather in Huelva — Graph

°F

Huelva Temperature Yesterday

Maximum temperature yesterday: 70 °F (at 12:00 PM)
Minimum temperature yesterday: 63 °F (at 9:45 PM)
Average temperature yesterday: 66 °F

High & Low Weather Summary for the Past Weeks

 TemperatureHumidityPressure
High84 °F (May 3, 5:00 PM)100% (Apr 24, 3:00 AM)30.18 "Hg (Apr 24, 3:00 AM)
Low50 °F (Apr 21, 6:00 AM)12% (May 3, 5:00 PM)29.83 "Hg (May 5, 8:00 AM)
Average65 °F68%29.99 "Hg
* Reported Apr 20 11:00 PM — May 5 11:00 PM, Huelva, Weather by CustomWeather, © 2016

Note: Actual official high and low records may vary slightly from our data, if they occured in-between our weather recording intervals... More about our weather records

Advertising

Huelva Weather History for the Previous 24 Hours

Scroll right to see more
 ConditionsComfort  
Time TempWeatherWind HumidityBarometerVisibility
11:00 PM
Thu, May 5
63 °FPassing clouds.10 mph94%29.89 "Hg6 mi
10:00 PM63 °FRain. Partly sunny.10 mph94%29.86 "Hg4 mi
9:45 PM63 °FSprinkles. Partly sunny.9 mph94%29.89 "Hg5 mi
9:00 PM64 °FPassing clouds.12 mph88%29.86 "HgN/A
8:00 PM64 °FPassing clouds.13 mph88%29.86 "HgN/A
7:00 PM66 °FPassing clouds.16 mph83%29.86 "HgN/A
6:00 PM66 °FScattered clouds.17 mph78%29.86 "HgN/A
5:00 PM66 °FPartly sunny.17 mph83%29.86 "HgN/A
4:00 PM64 °FLight rain. Broken clouds.10 mph88%29.86 "Hg4 mi
3:00 PM70 °FPartly sunny.14 mph64%29.83 "HgN/A
2:00 PM70 °FPartly sunny.17 mph64%29.83 "HgN/A
1:00 PM70 °FPartly sunny.15 mph64%29.86 "HgN/A
12:00 PM70 °FPassing clouds.17 mph64%29.86 "HgN/A
11:00 AM68 °FPassing clouds.16 mph64%29.86 "HgN/A
10:00 AM64 °FBroken clouds.12 mph68%29.86 "HgN/A
9:00 AM64 °FPartly sunny.7 mph64%29.86 "HgN/A
8:00 AM64 °FPassing clouds.7 mph60%29.83 "HgN/A
7:00 AM64 °FPassing clouds.9 mph56%29.86 "HgN/A
6:00 AM66 °FPassing clouds.12 mph49%29.86 "HgN/A
5:00 AM66 °FPassing clouds.15 mph43%29.86 "HgN/A
4:00 AM68 °FPassing clouds.13 mph30%29.89 "HgN/A
3:00 AM68 °FClear.16 mph33%29.89 "Hg10 mi
2:00 AM68 °FPassing clouds.22 mph33%29.92 "HgN/A
1:00 AM66 °FPassing clouds.18 mph43%29.92 "HgN/A
12:00 AM66 °FPassing clouds.13 mph43%29.95 "HgN/A
Weather by CustomWeather, © 2016

See weather overviewHow to use our weather pages